User: anonymous   Login
Location: Unspecified
(0.0000°N, 0.0000°E)
Time: 07:17:48
(UTC+00:00)
Language:

Gurwin Techsat 1B - Orbit

View from above orbital plane
View from above orbital plane
View from above satellite
View from above satellite

Ground track
Ground track

The orbit data is extracted from the following two-line orbital elements,

1 25397U 98043D   18014.88669423 -.00000025 +00000-0 +82434-5 0  9994
2 25397 098.6347 317.9928 0002359 097.0876 263.0571 14.23637901013699
Epoch (UTC): 14 January 2018 21:16:50
Eccentricity: 0.0002359
inclination: 98.6347°
perigee height: 811 km
apogee height: 815 km
right ascension of ascending node: 317.9928°
argument of perigee: 97.0876°
revolutions per day: 14.23637901
mean anomaly at epoch: 263.0571°
orbit number at epoch: 1369

The dashed part of the orbit path shows where the satellite is in the earth's shadow,  

DLR